Find Starlink 5436

NORAD ID: 54795 Int'l Des: 2022-175 Owner: SPXS Country: US Constellation: starlink operational
LEOCIRCULAR

Live-Position

3D-Globus wird geladen...

Über Starlink 5436

Beschreibung wird geladen...

Nächste Überflüge

Passes for default location (London). Set your location on the main map for personalized predictions.

Höhenverlauf

Loading altitude history...

Zweizeiliger Elementsatz

1 54795U 22175AP 26105.59659122 .00000139 00000-0 26811-4 0 9995
2 54795 53.2166 223.2680 0001824 89.5166 270.6035 15.08835170185700
Epoch: 15. Apr. 2026 • Age: 26 hours

Aktueller Status

Höhe 539.7 km
Geschwindigkeit 7.60 km/s
Subsatellitenpunkt 18.46°N, 150.21°E
Startdatum 17. Dez. 2022
Alter 3.3 years
Typ internet

Technische Details

Klassifizierung Payload
Masse 305.00 kg
Trockenmasse 290.00 kg
Gesamtmasse 305.00 kg
Länge 0.20 m
Durchmesser 2.80 m
Spannweite 9.00 m
Form Box + pan
Hersteller SPXS
Bus-Typ Starlink
Phasenstatus In Orbit
Besitzer/Staat SPXS/US

Most Searched